[[{"header":{"parameterUnit":"m.s-1","parameterCategory":1,"la1":30.2991,"la2":30.254,"lo1":-89.0895,"lo2":-89.0444,"dy":0.0017,"dx":0.0017,"nx":28,"ny":28,"refTime":"2024-02-24T03:00:00:Z","depth":0,"parameterNumber":2,"parameterNumberName":"U-component_of_WINDS"},"data":[0,0,0,0,0,0,0,0,0,0,0,0,0,0,0,0,0,0,0,0,0,0,0,0,0,0,0,0,0,0,0,0,0,0,0,0,0,0,0,0,0,0,0,0,0,0,0,0,0,0,0,0,0,0,0,0,0,0,-1.6835,-1.6836,0,-1.6857,-1.6857,-1.6857,-1.6847,-1.6847,-1.6846,-1.6846,-1.6867,-1.6868,-1.6869,0,0,0,0,0,0,0,0,0,0,0,0,0,-1.6785,-1.6786,-1.6835,-1.6836,-1.6836,-1.6857,-1.6857,-1.6857,-1.6847,-1.6847,-1.6846,-1.6845,-1.6866,-1.6868,-1.6869,0,0,0,0,0,0,0,0,0,0,0,0,0,-1.6807,-1.6786,-1.6835,-1.6834,-1.6834,-1.6856,-1.6857,-1.6857,-1.6847,-1.6847,-1.6846,-1.6845,-1.6866,-1.6867,-1.6869,-1.6895,0,0,-1.6874,-1.6874,0,0,0,0,0,0,0,0,-1.6805,-1.6808,-1.6834,-1.6834,-1.6834,-1.6848,-1.6847,-1.687,-1.6848,-1.6842,-1.6846,-1.6845,-1.6861,-1.6863,-1.6869,-1.6896,-1.6897,-1.6874,-1.6875,-1.6876,-1.6876,0,0,0,0,0,0,0,-1.6804,-1.6808,-1.6844,-1.6834,-1.6834,-1.6831,-1.6833,-1.6851,-1.6856,-1.6843,-1.6842,-1.6845,-1.6861,-1.6867,-1.6869,-1.6897,-1.6874,-1.6875,-1.6876,-1.6877,-1.6944,-1.6945,0,0,0,0,0,0,-1.6803,-1.6806,-1.6843,-1.6844,-1.6817,-1.6833,-1.6835,-1.6845,-1.6856,-1.6857,-1.6845,-1.6844,-1.6865,-1.6867,-1.687,-1.69,-1.6876,-1.6877,-1.6878,-1.6944,-1.6945,-1.6946,0,0,0,0,0,0,-1.6802,-1.6806,-1.6842,-1.6825,-1.683,-1.6834,-1.6845,-1.6845,-1.6852,-1.6858,-1.6858,-1.6851,-1.6864,-1.6868,-1.6888,-1.69,-1.6878,-1.6879,-1.6943,-1.6944,-1.6945,-1.696,0,0,0,0,0,0,-1.68,-1.6806,-1.6816,-1.6825,-1.6831,-1.6861,-1.6846,-1.6846,-1.6854,-1.6853,-1.6863,-1.6864,-1.6864,-1.6886,-1.689,-1.6902,-1.688,-1.6942,-1.6943,-1.6945,-1.6958,-1.6962,-1.6964,0,0,0,0,0,-1.6798,-1.6819,-1.6816,-1.6821,-1.6843,-1.6861,-1.6864,-1.6864,-1.6855,-1.6865,-1.6869,-1.6864,-1.6899,-1.6888,-1.6893,-1.6905,-1.6941,-1.6943,-1.6945,-1.6957,-1.6961,-1.6964,0,0,0,0,0,0,-1.6811,-1.6821,-1.6817,-1.6842,-1.6851,-1.686,-1.6872,-1.6869,-1.688,-1.6878,-1.6877,-1.688,-1.6901,-1.6905,-1.6894,-1.693,-1.6918,-1.6921,-1.6926,-1.693,-1.6933,-1.6931,-1.6882,0,0,0,0,0,-1.6817,-1.6831,-1.6838,-1.6859,-1.6864,-1.6867,-1.6875,-1.6874,-1.6883,-1.6887,-1.6892,-1.6901,-1.6914,-1.6922,-1.6935,-1.6959,-1.6961,-1.697,-1.6973,-1.6976,-1.6978,-1.699,-1.6994,-1.6952,-1.6952,-1.6952,0,0,-1.6828,-1.6835,-1.6844,-1.6862,-1.6869,-1.6883,-1.6871,-1.6886,-1.6896,-1.6889,-1.6909,-1.6913,-1.6923,-1.6945,-1.6955,-1.695,-1.699,-1.6978,-1.698,-1.6981,-1.6992,-1.6996,-1.7,-1.6953,-1.6953,-1.6953,0,0,-1.6857,-1.6864,-1.6882,-1.6889,-1.6899,-1.6901,-1.6905,-1.6914,-1.6917,-1.6937,-1.6931,-1.6943,-1.6966,-1.6972,-1.6979,-1.7009,-1.7004,-1.7013,-1.7028,-1.704,-1.7043,-1.7046,-1.7056,-1.7059,-1.7015,-1.7015,-1.7015,0,-1.687,-1.6891,-1.6891,-1.6907,-1.6915,-1.6909,-1.6926,-1.6933,-1.6947,-1.6952,-1.6945,-1.6973,-1.6979,-1.7002,-1.7009,-1.7015,-1.7019,-1.7011,-1.7043,-1.7046,-1.7048,-1.7058,-1.7061,-1.7016,-1.7016,-1.7016,-1.7016,0,-1.6906,-1.6921,-1.6934,-1.6947,-1.6956,-1.6973,-1.6975,-1.6984,-1.6982,-1.6985,-1.7004,-1.7012,-1.7025,-1.703,-1.7029,-1.7053,-1.7049,-1.7043,-1.7031,-1.7053,-1.7062,-1.7065,-1.7018,-1.7017,-1.7017,-1.7017,0,0,-1.6943,-1.6956,-1.696,-1.6966,-1.6977,-1.6988,-1.7004,-1.7017,-1.7024,-1.7034,-1.7046,-1.7065,-1.7059,-1.7066,-1.7065,-1.7076,-1.7098,-1.7068,-1.7068,-1.7072,-1.7124,-1.7128,-1.7132,-1.7095,-1.7096,-1.7096,-1.7122,0,-1.6971,-1.7,-1.7,-1.7025,-1.7038,-1.7033,-1.7047,-1.7054,-1.7057,-1.7068,-1.7071,-1.7084,-1.7076,-1.708,-1.709,-1.7093,-1.7108,-1.7091,-1.7106,-1.7106,-1.7103,-1.7136,-1.7141,-1.7165,-1.7126,-1.7126,-1.7127,0,-1.7008,-1.7019,-1.7046,-1.7053,-1.7059,-1.7071,-1.7082,-1.7093,-1.7102,-1.7103,-1.7111,-1.7108,-1.7124,-1.7112,-1.7132,-1.7121,-1.7127,-1.7129,-1.713,-1.7131,-1.7117,-1.7137,-1.7173,-1.7176,-1.7132,-1.7132,-1.7132,0,-1.7031,-1.7052,-1.707,-1.7075,-1.7085,-1.7094,-1.7098,-1.7106,-1.7113,-1.7123,-1.7127,-1.7139,-1.7145,-1.7154,-1.7154,-1.7146,-1.7175,-1.7163,-1.7175,-1.7175,-1.7181,-1.718,-1.7218,-1.7187,-1.7187,-1.7186,-1.7186,0,-1.7062,-1.7078,-1.708,-1.7092,-1.7109,-1.7109,-1.7127,-1.713,-1.7137,-1.7148,-1.7145,-1.7155,-1.7156,-1.7167,-1.7167,-1.7183,-1.7187,-1.7187,-1.7187,-1.7187,-1.7187,-1.719,-1.7188,-1.7187,-1.7187,-1.7187,-1.7187,0,-1.709,-1.7092,-1.7112,-1.7119,-1.7122,-1.7134,-1.7141,-1.7151,-1.7153,-1.7167,-1.7171,-1.7174,-1.7187,-1.7188,-1.7203,-1.7203,-1.7222,-1.7221,-1.7219,-1.7219,-1.723,-1.7229,-1.727,-1.7275,-1.7242,-1.7242,-1.7243,0,-1.7109,-1.7121,-1.713,-1.7138,-1.7142,-1.7155,-1.7162,-1.7162,-1.717,-1.718,-1.7188,-1.72,-1.721,-1.723,-1.7233,-1.7244,-1.7242,-1.7256,-1.7244,-1.7243,-1.7241,-1.724,-1.724,-1.7258,-1.7258,-1.7259,-1.7259,0,-1.7143,-1.7143,-1.7154,-1.7165,-1.7173,-1.7182,-1.719,-1.7196,-1.7197,-1.7206,-1.7218,-1.7226,-1.724,-1.7252,-1.7262,-1.7266,-1.7262,-1.7263,-1.7266,-1.7266,-1.7264,-1.7264,-1.7225,-1.7262,-1.7261,-1.7261,-1.7261,-1.7261,-1.7166,-1.7176,-1.7184,-1.7196,-1.7202,-1.7209,-1.7219,-1.7222,-1.7232,-1.7244,-1.7244,-1.7257,-1.7264,-1.7278,-1.7283,-1.7293,-1.7288,-1.7293,-1.7294,-1.7295,-1.7296,-1.7263,-1.7295,-1.7295,-1.7295,-1.7295,-1.7295,0,-1.7198,-1.7203,-1.7214,-1.7225,-1.7234,-1.723,-1.7238,-1.7246,-1.7258,-1.7265,-1.7274,-1.7288,-1.7299,-1.7303,-1.7314,-1.7321,-1.7319,-1.7323,-1.7322,-1.7323,-1.73,-1.7296,-1.7325,-1.7325,-1.7325,-1.7325,-1.7324,-1.7324,-1.7216,-1.7233,-1.7234,-1.7253,-1.7257,-1.727,-1.7275,-1.7282,-1.7287,-1.7303,-1.7312,-1.7315,-1.732,-1.7331,-1.7341,-1.7342,-1.7345,-1.735,-1.735,-1.7328,-1.7325,-1.7322,-1.7318,-1.7351,-1.7351,-1.7372,-1.7373,-1.7373]},{"header":{"parameterUnit":"m.s-1","parameterCategory":1,"la1":30.2991,"la2":30.254,"lo1":-89.0895,"lo2":-89.0444,"dy":0.0017,"dx":0.0017,"nx":28,"ny":28,"refTime":"2024-02-24T03:00:00:Z","depth":0,"parameterNumber":3,"parameterNumberName":"V-component_of_WINDS"},"data":[0,0,0,0,0,0,0,0,0,0,0,0,0,0,0,0,0,0,0,0,0,0,0,0,0,0,0,0,0,0,0,0,0,0,0,0,0,0,0,0,0,0,0,0,0,0,0,0,0,0,0,0,0,0,0,0,0,0,2.5683,2.5683,0,2.568,2.568,2.568,2.5636,2.5635,2.5634,2.5633,2.563,2.563,2.5631,0,0,0,0,0,0,0,0,0,0,0,0,0,2.5654,2.5655,2.5683,2.5683,2.5683,2.568,2.568,2.568,2.5636,2.5635,2.5634,2.5632,2.5629,2.563,2.5631,0,0,0,0,0,0,0,0,0,0,0,0,0,2.566,2.5655,2.5683,2.5661,2.5659,2.568,2.568,2.568,2.5637,2.5635,2.5633,2.5632,2.5629,2.563,2.5632,2.5673,0,0,2.5636,2.5637,0,0,0,0,0,0,0,0,2.566,2.5662,2.5665,2.5663,2.5661,2.5657,2.5668,2.5677,2.5637,2.5645,2.5633,2.5631,2.564,2.564,2.5643,2.5673,2.5673,2.5636,2.5637,2.5637,2.5638,0,0,0,0,0,0,0,2.566,2.5661,2.5682,2.5665,2.5662,2.5652,2.5651,2.567,2.5652,2.5644,2.5641,2.5641,2.5639,2.5642,2.5643,2.5673,2.5636,2.5637,2.5638,2.5639,2.5738,2.5739,0,0,0,0,0,0,2.5662,2.5661,2.5682,2.5682,2.5656,2.5654,2.5653,2.566,2.5652,2.5649,2.5643,2.5639,2.564,2.5641,2.5643,2.5691,2.5637,2.5639,2.564,2.5736,2.5738,2.574,0,0,0,0,0,0,2.5662,2.5665,2.5682,2.5671,2.5672,2.5656,2.5664,2.566,2.5664,2.565,2.5647,2.565,2.5639,2.5641,2.5666,2.5691,2.5639,2.5641,2.5734,2.5736,2.5739,2.5789,0,0,0,0,0,0,2.5661,2.5665,2.568,2.5671,2.5673,2.5706,2.5666,2.5662,2.5666,2.5662,2.5656,2.5653,2.5638,2.5664,2.5667,2.5692,2.5642,2.5731,2.5735,2.5738,2.5785,2.5793,2.58,0,0,0,0,0,2.566,2.5694,2.5681,2.5684,2.5692,2.5707,2.5708,2.569,2.5668,2.5684,2.5675,2.5653,2.5687,2.5667,2.567,2.5695,2.573,2.5734,2.5738,2.5782,2.5791,2.58,0,0,0,0,0,0,2.5706,2.5692,2.5678,2.571,2.571,2.57,2.5719,2.57,2.5707,2.5702,2.5679,2.5678,2.5708,2.5704,2.5682,2.5736,2.5705,2.571,2.5737,2.5746,2.5754,2.5754,2.5643,0,0,0,0,0,2.5719,2.5733,2.572,2.575,2.5751,2.5735,2.5741,2.5727,2.5726,2.5726,2.5719,2.572,2.573,2.5738,2.5747,2.5784,2.5783,2.5803,2.5811,2.5817,2.5821,2.5842,2.5851,2.5753,2.5753,2.5753,0,0,2.5748,2.5742,2.5752,2.5759,2.5757,2.5772,2.5735,2.5752,2.5763,2.5728,2.5752,2.5748,2.5747,2.5778,2.5792,2.5776,2.5848,2.5822,2.5827,2.5828,2.5847,2.5856,2.5865,2.5756,2.5755,2.5755,0,0,2.5807,2.5804,2.5829,2.5828,2.5826,2.5816,2.5822,2.5815,2.581,2.5834,2.5809,2.5822,2.584,2.5841,2.5844,2.5905,2.5885,2.5909,2.5948,2.5968,2.5975,2.5982,2.6005,2.6013,2.5913,2.5913,2.5913,0,2.5843,2.5864,2.5844,2.5863,2.5867,2.5836,2.5862,2.5862,2.5864,2.5868,2.585,2.5874,2.5871,2.5903,2.5918,2.5921,2.5928,2.5909,2.5976,2.5983,2.5989,2.601,2.6018,2.5916,2.5916,2.5916,2.5915,0,2.5908,2.5923,2.5943,2.5946,2.5952,2.5975,2.5958,2.5967,2.5953,2.5944,2.597,2.5965,2.5973,2.598,2.5966,2.601,2.6001,2.598,2.5948,2.6001,2.6021,2.6029,2.592,2.5919,2.5919,2.5918,0,0,2.5996,2.5988,2.5995,2.5997,2.5993,2.6005,2.6026,2.6034,2.6042,2.6045,2.6062,2.608,2.6061,2.6064,2.605,2.6068,2.6118,2.6044,2.6044,2.6059,2.6168,2.6184,2.6194,2.6104,2.6106,2.6107,2.6168,0,2.6054,2.6089,2.6072,2.611,2.6124,2.6096,2.6115,2.6115,2.6108,2.6119,2.6111,2.6124,2.6097,2.6099,2.6116,2.6108,2.6139,2.6103,2.6121,2.6122,2.6123,2.6204,2.6221,2.6278,2.6175,2.6177,2.6178,0,2.6126,2.6132,2.6171,2.6166,2.6172,2.6188,2.6195,2.6206,2.6206,2.62,2.6204,2.6186,2.6207,2.6176,2.6205,2.6181,2.6187,2.6185,2.6187,2.6188,2.6154,2.6208,2.6296,2.6305,2.6189,2.6188,2.6188,0,2.6188,2.6205,2.6231,2.6233,2.6227,2.624,2.6238,2.6237,2.6243,2.6249,2.6253,2.6261,2.6266,2.6273,2.6258,2.6237,2.629,2.6257,2.6286,2.6287,2.6299,2.6298,2.639,2.6302,2.6302,2.6302,2.6301,0,2.6255,2.628,2.6259,2.6275,2.6303,2.6283,2.6311,2.6306,2.6305,2.6321,2.6297,2.6311,2.629,2.6303,2.6292,2.6318,2.6321,2.6317,2.6313,2.6319,2.632,2.6323,2.6319,2.6304,2.6303,2.6303,2.6303,0,2.6328,2.6314,2.6341,2.6334,2.6333,2.6354,2.6348,2.6363,2.6354,2.6374,2.6377,2.6364,2.6378,2.6364,2.6377,2.6369,2.6405,2.6395,2.6405,2.6403,2.6433,2.6431,2.6531,2.6543,2.6446,2.6447,2.6448,0,2.6372,2.6391,2.6386,2.6394,2.6394,2.6408,2.6415,2.6396,2.6404,2.6406,2.6421,2.6433,2.6442,2.6466,2.6458,2.6468,2.6459,2.6493,2.646,2.6466,2.6461,2.646,2.6462,2.65,2.6501,2.6502,2.6503,0,2.6452,2.6445,2.6455,2.6464,2.6472,2.6478,2.6482,2.649,2.6471,2.6481,2.6496,2.6502,2.6516,2.6529,2.6537,2.6535,2.6517,2.6513,2.6521,2.6527,2.6533,2.6531,2.6424,2.6511,2.6511,2.651,2.6509,2.6509,2.6513,2.6529,2.6528,2.6541,2.6542,2.6546,2.656,2.6553,2.6565,2.6575,2.6563,2.6581,2.6581,2.659,2.6591,2.6605,2.659,2.6601,2.6604,2.6607,2.6612,2.653,2.6606,2.6606,2.6606,2.6605,2.6605,0,2.6592,2.6591,2.6602,2.6609,2.6619,2.66,2.6604,2.6614,2.663,2.6632,2.6641,2.6658,2.667,2.6663,2.6674,2.6687,2.6679,2.669,2.669,2.669,2.6624,2.6616,2.6697,2.6697,2.6697,2.6697,2.6697,2.6697,2.6635,2.6661,2.6654,2.6681,2.6679,2.6697,2.6701,2.6705,2.6706,2.6726,2.6737,2.6732,2.6731,2.6741,2.6752,2.675,2.6755,2.677,2.6765,2.6703,2.6694,2.6686,2.6679,2.6771,2.6772,2.683,2.6831,2.6831]}]]